Location: Newark
(43.9494°N, 6.8108°E)
Time: 18:10:06
(UTC+00:00)

A-11 Canister half - Pass Details

Date: 30 October 2019
Orbit: 1514 x 1685 km, 47.2° (Epoch: 20 November)

Event Time Altitude Azimuth Distance (km) Brightness Sun altitude
Rises 06:14:06 0° 294° (WNW) 4,824 10.9 0.6°
Reaches altitude 10° 06:17:45 10° 284° (WNW) 3,808 10.4 1.2°
Maximum altitude 06:25:35 29° 229° (SW) 2,544 10.0 2.5°
Drops below altitude 10° 06:33:13 10° 173° (S) 3,695 11.5 3.8°
Sets 06:36:43 0° 163° (SSE) 4,659 12.2 4.3°
